Weather Roundup
Issued by NWS

Home | Current Version | Previous Version | Graphics & Text | Print | Product List | Glossary Off
Versions: 1 2 3 4 5 6 7 8 9 10 11 12 13 14 15 16 17 18 19 20 21 22 23 24 25 26 27 28 29 30 31 32 33 34 35 36 37 38 39 40 41 42 43 44 45 46 47 48 49 50

000
NZUS93 KARX 291510
HRRWXR

CURRENT HOURLY OBSERVATIONS ACROSS
MUCH OF THE UPPER MISSISSIPPI VALLEY
NATIONAL WEATHER SERVICE LA CROSSE WI
1000 AM CDT TUE JUL 29 2014


...SOUTHEAST MINNESOTA...


CITY           SKY/WX    TMP DP  RH WIND       PRES   REMARKS
ROCHESTER      SUNNY     69  58  67 VRB6      30.15F
ROCHESTER/MAYO FAIR      67  55  65 W7        30.14S
WINONA         SUNNY     70  59  68 N3        30.11F
AUSTIN         SUNNY     68  57  68 NW7       30.15S
ALBERT LEA     SUNNY     68  57  68 N3        30.16S
DODGE CENTER   SUNNY     66  59  77 NW7       30.15S
PRESTON        SUNNY     67  63  86 NW8       30.14S
OWATONNA       SUNNY     68  57  68 NW7       30.15S
FARIBAULT      SUNNY     73  55  53 NW5       30.15S
$$

...ELSEWHERE IN MINNESOTA...


CITY           SKY/WX    TMP DP  RH WIND       PRES   REMARKS
MINNEAPOLIS    SUNNY     72  58  61 W6        30.13F
INTNL FALLS    SUNNY     70  57  63 NW10      30.08S
DULUTH         MOSUNNY   70  55  59 NW13      30.07S
RED WING       SUNNY     72  59  64 W6        30.11S
REDWOOD FALLS  SUNNY     69  57  65 NW7       30.18F
MANKATO        SUNNY     66  55  68 W7        30.17S
WORTHINGTON    SUNNY     66  55  68 N8        30.23S
FAIRMONT       SUNNY     70  55  60 NW8       30.19S
$$

...SOUTHWEST WISCONSIN...


CITY           SKY/WX    TMP DP  RH WIND       PRES   REMARKS
LA CROSSE      SUNNY     70  58  65 VRB7      30.10S
PRAIRIE DU CHI SUNNY     69  55  62 CALM      30.10S
BOSCOBEL       SUNNY     71  58  63 VRB3      30.09F
LONE ROCK      SUNNY     73  59  61 W7        30.08F
PLATTEVILLE    SUNNY     69  59  69 NW7       30.10F
FORT MC COY    SUNNY     69  55  60 W7        30.10S
CAMP DOUGLAS   SUNNY     69  60  74 NW7       30.08F
VIROQUA        FAIR      68  59  72 NW9       30.11S
WIS DELLS      SUNNY     69  54  60 NW6       30.08S
$$

...ELSEWHERE IN WISCONSIN...


CITY           SKY/WX    TMP DP  RH WIND       PRES   REMARKS
MILWAUKEE      MOSUNNY   69  55  60 W8        30.03S
MADISON        MOSUNNY   71  56  58 N8        30.07S
GREEN BAY      PTSUNNY   70  56  61 N7        30.02F
EAU CLAIRE     SUNNY     71  57  61 VRB3      30.09S
BLACK RVR FLS  FAIR      70  54  57 NW5       30.09S
MEDFORD        PTSUNNY   63  56  78 NW7       30.08S
WAUSAU         MOSUNNY   65  54  67 NW9       30.05S
WIS RAPIDS     MOSUNNY   70  55  59 NW8       30.07F
MARSHFIELD     SUNNY     71  55  56 NW13      30.07F
RICE LAKE      NOT AVBL
$$

...NORTHEAST IOWA...


CITY           SKY/WX    TMP DP  RH WIND       PRES   REMARKS
WATERLOO       SUNNY     69  59  70 NW6       30.13S
DUBUQUE        SUNNY     70  59  68 NW8       30.11S
DECORAH        SUNNY     68  59  73 NW5       30.12S
MASON CITY     SUNNY     69  59  70 N6        30.18S
CHARLES CITY   SUNNY     68  59  73 NW8       30.16S
OELWEIN        SUNNY     68  61  77 NW7       30.14S
$$

...ELSEWHERE IN IOWA...


CITY           SKY/WX    TMP DP  RH WIND       PRES   REMARKS
DES MOINES     MOSUNNY   72  58  61 VRB5      30.17S
IOWA CITY      SUNNY     71  59  65 W7        30.14S
FORT DODGE     SUNNY     66  57  72 NW6       30.20S
MARSHALLTOWN   SUNNY     67  60  78 NW6       30.16R
CEDAR RAPIDS   SUNNY     68  57  68 NW6       30.13S
$$

...NORTHERN ILLINOIS...


CITY           SKY/WX    TMP DP  RH WIND       PRES   REMARKS
CHICAGO-OHARE  MOSUNNY   71  52  50 NW15      30.04F
DUPAGE         MOSUNNY   71  55  56 NW9       30.05F
CHICAGO-MIDWAY MOSUNNY   73  56  54 W9        30.04F
MOLINE         SUNNY     71  57  61 W6        30.11F
ROCKFORD       SUNNY     71  56  58 NW9       30.09F
STERLING       SUNNY     72  59  64 NW8       30.10S
PEORIA         SUNNY     73  56  54 NW8       30.12S
$$

NOTE: "FAIR" INDICATES FEW OR NO CLOUDS BELOW 12,000 FEET WITH NO
SIGNIFICANT WEATHER AND/OR OBSTRUCTIONS TO VISIBILITY. WIND
SPEEDS ARE IN MILES-PER-HOUR.



USA.gov is the U.S. government's official web portal to all federal, state and local government web resources and services.